Weather Roundup
Issued by NWS Chicago, IL

Home | Current Version | Previous Version | Text Only | Print | Product List | Glossary On
Versions: 1 2 3 4 5 6 7 8 9 10 11 12 13 14 15 16 17 18 19 20 21 22 23 24 25 26 27 28 29 30 31 32 33 34 35 36 37 38 39 40 41 42 43 44 45 46 47 48 49 50
000
NZUS59 KLOT 171908
HRRLOT

CHICAGO AREA WEATHER ROUNDUP
NATIONAL WEATHER SERVICE CHICAGO/ROMEOVILLE IL
100 PM CST SAT FEB 17 2018

NOTE: "FAIR" INDICATES FEW OR NO CLOUDS BELOW 12,000 FEET WITH NO
SIGNIFICANT WEATHER AND/OR OBSTRUCTIONS TO VISIBILITY.

* THESE STATIONS ARE NOT UNDER NWS QUALITY CONTROL. THEY ALSO MAY NOT
  REPORT WEATHER SUCH AS PRECIPITATION OR FOG.

ILZ005-006-012>014-019>023-172000-
NORTHEAST ILLINOIS

CITY           SKY/WX    TMP DP  RH WIND       PRES   REMARKS
OHARE          CLOUDY    34  24  67 SW13      29.96F WCI  25
MIDWAY         CLOUDY    35  26  69 SW12      29.97F WCI  27
AURORA         CLOUDY    32  26  78 S8        29.95F WCI  25
LANSING*       PTSUNNY   33  28  83 S10       29.98F WCI  25
JOLIET*        CLOUDY    36  29  75 S8        29.97F
WAUKEGAN       CLOUDY    32  23  69 SW8       29.95F WCI  25
DUPAGE AIRPORT CLOUDY    33  26  75 S10       29.95F WCI  25
WHEELING       CLOUDY    35  24  64 S7        29.97F WCI  29
KANKAKEE*      CLOUDY    34  28  76 S9        29.98F WCI  27
MORRIS*        CLOUDY    33  28  80 S8        29.96F WCI  27
LEWIS AIRPORT* CLOUDY    33  28  81 S9        29.97F WCI  25
NORTHERLY ISL    N/A     34  24  67 S10         N/A  WCI  26
$$

WIZ051-052-058>065-066-070>072-172000-
SOUTHEAST WISCONSIN

CITY           SKY/WX    TMP DP  RH WIND       PRES   REMARKS
MILWAUKEE      CLOUDY    32  15  49 SW12      29.95F WCI  23
KENOSHA*       CLOUDY    33  22  63 VRB6      29.94F WCI  28
RACINE*        CLOUDY    32  17  54 SW7       29.97F WCI  26
BURLINGTON       N/A     31  20  65 CALM      29.93F
WAUKESHA       CLOUDY    28  12  50 SW12G21   29.94F WCI  18
WEST BEND      CLOUDY    32  12  43 SW8       29.91F WCI  25
$$

INZ001>003-010>013-019-020-172000-
NORTHWEST INDIANA

CITY           SKY/WX    TMP DP  RH WIND       PRES   REMARKS
GARY*          CLOUDY    36  25  64 SW6       29.99F
MICHIGAN CITY* NOT AVBL
RENSSELAER*    NOT AVBL
VALPARAISO       N/A     35  27  72 S10       29.98F WCI  27
$$

LMZ740>746-172000-
SOUTHERN LAKE MICHIGAN

STATION/POSITION TIME  SKY/WX   TEMP WIND        PRES    VSBY
                                AIR  DIR/SP/G
                 (UTC)          (F)  (DEG/KT/KT) (MB)    (MI)
HARRISON CRIB    1840            34  200/ 12/ 13   N/A
BURNHAM HARBOR   1900            34  190/  8/ 14   N/A
CALUMET HARBOR   1848            34  180/  7/ 11 1014.6F
BURNS HARBOR     1840            33  190/ 12/ 15 1015.6F
MICHIGAN CITY    1840            33  170/ 11/ 14   N/A
$$

ABBREVIATIONS USED IN REMARKS
   TC - TEMPERATURE IN CELSIUS
  WCI - WIND CHILL INDEX
   HX - HEAT INDEX
  VSB - VISIBILITY
$$



USA.gov is the U.S. government's official web portal to all federal, state and local government web resources and services.